This is the latest recevied weather packets stored in our database for station/object G4KVI. If no packets are shown the sender has not sent any weather packets the latest 10 day(s).
| Time | Temp. | Humidity | Pressure | Rain* | Wind** | Luminosity | Snow |
|---|---|---|---|---|---|---|---|
| 1787417405 | 20.56° C | 42% | 1025.6 hPa | 0 mm | - | 79 W/m² | - |
| 1787417105 | 20.56° C | 41% | 1025.4 hPa | 0 mm | - | 102 W/m² | - |
| 1787416804 | 21.11° C | 41% | 1025.9 hPa | 0 mm | - | 293 W/m² | - |
| 1787416504 | 21.11° C | 41% | 1025.5 hPa | 0 mm | - | 281 W/m² | - |
| 1787416205 | 21.11° C | 41% | 1025.3 hPa | 0 mm | - | 212 W/m² | - |
| 1787415904 | 20.56° C | 42% | 1025.5 hPa | 0 mm | - | 308 W/m² | - |
| 1787415604 | 21.11° C | 40% | 1025.7 hPa | 0 mm | - | 158 W/m² | - |
| 1787415305 | 21.67° C | 39% | 1025.6 hPa | 0 mm | - | 138 W/m² | - |
| 1787415004 | 21.67° C | 38% | 1025.5 hPa | 0 mm | - | 141 W/m² | - |
| 1787414704 | 22.22° C | 36% | 1025.4 hPa | 0 mm | - | 165 W/m² | - |
| 1787414405 | 22.22° C | 38% | 1025.6 hPa | 0 mm | - | 194 W/m² | - |
| 1787414104 | 22.22° C | 38% | 1025.5 hPa | 0 mm | - | 463 W/m² | - |
| 1787413804 | 22.22° C | 39% | 1025.5 hPa | 0 mm | - | 486 W/m² | - |
| 1787413504 | 22.22° C | 39% | 1025.5 hPa | 0 mm | - | 498 W/m² | - |
| 1787413204 | 22.22° C | 39% | 1025.6 hPa | 0 mm | - | 486 W/m² | - |
| 1787412905 | 21.67° C | 39% | 1025.6 hPa | 0 mm | - | 471 W/m² | - |
| 1787412605 | 21.11° C | 39% | 1025.6 hPa | 0 mm | - | 465 W/m² | - |
| 1787412304 | 21.11° C | 39% | 1025.5 hPa | 0 mm | - | 480 W/m² | - |
| 1787412005 | 20° C | 40% | 1025.5 hPa | 0 mm | - | 513 W/m² | - |
| 1787411705 | 20° C | 42% | 1025.5 hPa | 0 mm | - | 147 W/m² | - |
| 1787411405 | 20° C | 42% | 1025.5 hPa | 0 mm | - | 143 W/m² | - |
| 1787411105 | 20.56° C | 42% | 1025.7 hPa | 0 mm | - | 142 W/m² | - |
| 1787410805 | 20.56° C | 43% | 1025.7 hPa | 0 mm | - | 144 W/m² | - |
| 1787410505 | 21.11° C | 41% | 1025.5 hPa | 0 mm | - | 142 W/m² | - |
| 1787410205 | 21.67° C | 39% | 1025.7 hPa | 0 mm | - | 144 W/m² | - |
* Rain latest hour (hover to see other rain measurements)
** Current wind speed in m/s (hover to see current wind gust speed)